Location: Barcelona
(41.3830°N, 2.1830°E)
Time: 23:51:28
(UTC+02:00)

ISS - Pass Details

Date: 21 May 2019
Orbit: 408 x 418 km, 51.6° (Epoch: 26 May)

Event Time Altitude Azimuth Distance (km) Brightness Sun altitude
Rises 01:54:41 0° 307° (NW) 2,360 0.5 -28.5°
Reaches altitude 10° 01:57:20 10° 329° (NNW) 1,497 -0.3 -28.5°
Maximum altitude 01:59:36 17° 12° (NNE) 1,154 -0.8 -28.5°
Enters shadow 02:01:07 13° 43° (NE) 1,319 -0.7 -28.5°
